Weather History for Pula, Croatia

Change the Weather History Date:

Wednesday, October 3, 2012

  Actual Average Record
Temperature  
Mean Temperature 65 °F -  
Max Temperature 74 °F - - ()
Min Temperature 56 °F - - ()
Growing Degree Days 15 (Base 50)    
Moisture  
Dew Point 60 °F    
Average Humidity 86    
Maximum Humidity 100    
Minimum Humidity 60    
Precipitation  
Precipitation 0.00 in - - ()
Sea Level Pressure  
Sea Level Pressure 30.07 in    
Wind  
Wind Speed 3 mph ()    
Max Wind Speed 9 mph    
Max Gust Speed -    
Visibility 6.7 miles    
Events Fog , Rain    
T = Trace of Precipitation, MM = Missing Value Source: Averaged Metar Reports

Daily Weather History Graph

Daily Weather History Graph

Search for Another Location

Airport:

Trip Planner

Search our weather history database for the weather conditions in past years. The results will help you decide how hot, cold, wet, or windy it might be!

Date:

Astronomy

Oct. 03, 2012 Rise Set
Actual Time 7:04 AM CEST 6:40 PM CEST
Civil Twilight 6:35 AM CEST 7:09 PM CEST
Nautical Twilight 6:01 AM CEST 7:43 PM CEST
Astronomical Twilight 5:27 AM CEST 8:18 PM CEST
Moon 8:10 PM CEST (10/3) 10:22 AM CEST (10/3)
Length of Visible Light 12h 34m
Length of Day
11h 35m
Waning Gibbous, 90% of the Moon is Illuminated
Oct 3
Waning Gibbous
Oct 8
Last Quarter
Oct 15
New
Oct 22
First Quarter
Oct 29
Full

Hourly Weather History & Observations

Time (CEST) Temp. Dew Point Humidity Pressure Visibility Wind Dir Wind Speed Gust Speed Precip Events Conditions
12:00 AM 59.0 °F 57.2 °F 94% 30.06 in - Variable 1.2 mph - N/A   Clear
12:30 AM 57.2 °F 55.4 °F 94% 30.06 in - Variable 1.2 mph - N/A   Clear
1:00 AM 57.2 °F 55.4 °F 94% 30.06 in - Variable 1.2 mph - N/A   Clear
1:30 AM 57.2 °F 55.4 °F 94% 30.06 in - Variable 2.3 mph - N/A   Clear
2:00 AM 58 °F 57 °F 94% 30.07 in 6 mi ENE 4.5 mph - -   Partly Cloudy
2:00 AM 59.0 °F 57.2 °F 94% 30.06 in - ENE 4.6 mph - N/A   Clear
2:30 AM 57.2 °F 57.2 °F 100% 30.06 in - Variable 2.3 mph - N/A   Clear
3:00 AM 59.0 °F 57.2 °F 94% 30.06 in - Variable 2.3 mph - N/A   Clear
3:30 AM 59.0 °F 57.2 °F 94% 30.06 in 6.2 mi ENE 4.6 mph - N/A   Partly Cloudy
4:00 AM 59.0 °F 59.0 °F 100% 30.06 in 6.2 mi Variable 2.3 mph - N/A   Scattered Clouds
4:30 AM 59.0 °F 57.2 °F 94% 30.06 in 6.2 mi ENE 4.6 mph - N/A   Scattered Clouds
5:00 AM 60 °F 58 °F 92% 30.06 in 6 mi ENE 4.5 mph - -   Scattered Clouds
5:00 AM 60.8 °F 59.0 °F 94% 30.06 in 6.2 mi ENE 4.6 mph - N/A   Partly Cloudy
5:30 AM 60.8 °F 59.0 °F 94% 30.04 in 6.2 mi Variable 2.3 mph - N/A   Partly Cloudy
6:00 AM 60 °F 58 °F 91% 30.06 in 6 mi East 4.5 mph - -   Scattered Clouds
6:00 AM 59.0 °F 59.0 °F 100% 30.06 in 6.2 mi East 4.6 mph - N/A   Partly Cloudy
6:30 AM 57.2 °F 55.4 °F 94% 30.06 in 6.2 mi East 4.6 mph - N/A   Partly Cloudy
7:00 AM 59 °F 57 °F 92% 30.07 in 9 mi East 2.2 mph - -   Mostly Cloudy
7:00 AM 59.0 °F 57.2 °F 94% 30.06 in 6.2 mi Variable 1.2 mph - N/A   Scattered Clouds
7:30 AM 60.8 °F 59.0 °F 94% 30.06 in 6.2 mi Variable 1.2 mph - N/A Rain Light Rain
8:00 AM 61 °F 60 °F 94% 30.08 in 9 mi East 4.5 mph - - Rain Light Rain
8:00 AM 60.8 °F 59.0 °F 94% 30.06 in 6.2 mi East 4.6 mph - N/A   Scattered Clouds
8:30 AM 62.6 °F 60.8 °F 94% 30.06 in 6.2 mi ENE 4.6 mph - N/A   Scattered Clouds
9:00 AM 62 °F 60 °F 93% 30.09 in 12 mi East 6.7 mph - -   Partly Cloudy
9:00 AM 62.6 °F 60.8 °F 94% 30.06 in 6.2 mi East 5.8 mph - N/A   Scattered Clouds
9:30 AM 64.4 °F 60.8 °F 88% 30.09 in 6.2 mi East 5.8 mph - N/A   Partly Cloudy
10:00 AM 66 °F 63 °F 87% 30.10 in 19 mi ENE 6.7 mph - -   Scattered Clouds
10:00 AM 66.2 °F 62.6 °F 88% 30.09 in 6.2 mi ENE 5.8 mph - N/A   Partly Cloudy
10:30 AM 68.0 °F 62.6 °F 83% 30.09 in 6.2 mi East 4.6 mph - N/A   Partly Cloudy
11:00 AM 70 °F 62 °F 69% 30.10 in 19 mi ESE 4.5 mph - -   Scattered Clouds
11:00 AM 69.8 °F 62.6 °F 78% 30.09 in 6.2 mi ESE 4.6 mph - N/A   Partly Cloudy
11:30 AM 69.8 °F 62.6 °F 78% 30.09 in 6.2 mi SE 4.6 mph - N/A   Partly Cloudy
12:00 PM 72 °F 62 °F 64% 30.09 in 19 mi SE 4.5 mph - -   Scattered Clouds
12:00 PM 71.6 °F 62.6 °F 73% 30.09 in 6.2 mi SE 4.6 mph - N/A   Partly Cloudy
12:30 PM 69.8 °F 60.8 °F 73% 30.09 in 6.2 mi SE 4.6 mph - N/A   Partly Cloudy
1:00 PM 71 °F 63 °F 68% 30.09 in 19 mi SE 6.7 mph - -   Partly Cloudy
1:00 PM 71.6 °F 62.6 °F 73% 30.09 in 6.2 mi SE 4.6 mph - N/A   Scattered Clouds
1:30 PM 69.8 °F 62.6 °F 78% 30.06 in 6.2 mi SE 5.8 mph - N/A   Scattered Clouds
2:00 PM 74 °F 63 °F 60% 30.08 in 19 mi SW 6.7 mph - -   Partly Cloudy
2:00 PM 73.4 °F 62.6 °F 69% 30.06 in 6.2 mi SW 6.9 mph - N/A   Scattered Clouds
2:30 PM 73.4 °F 64.4 °F 73% 30.06 in 6.2 mi SSW 4.6 mph - N/A   Scattered Clouds
3:00 PM 73.4 °F 62.6 °F 69% 30.06 in 6.2 mi SW 6.9 mph - N/A   Scattered Clouds
3:30 PM 73.4 °F 60.8 °F 65% 30.06 in 6.2 mi WSW 8.1 mph - N/A   Partly Cloudy
4:00 PM 72 °F 62 °F 62% 30.07 in 7 mi SW 8.9 mph - -   Scattered Clouds
4:00 PM 71.6 °F 62.6 °F 73% 30.06 in 6.2 mi SW 8.1 mph - N/A   Partly Cloudy
4:30 PM 69.8 °F 62.6 °F 78% 30.06 in 5.6 mi WSW 9.2 mph - N/A   Partly Cloudy
5:00 PM 70 °F 62 °F 70% 30.07 in 6 mi Calm Calm - -   Mist
5:00 PM 69.8 °F 62.6 °F 78% 30.06 in 5.6 mi West 6.9 mph - N/A   Partly Cloudy
5:30 PM 69.8 °F 62.6 °F 78% 30.06 in 5.6 mi West 5.8 mph - N/A   Partly Cloudy
6:00 PM 68 °F 62 °F 74% 30.07 in 5 mi West 8.9 mph - -   Mist
6:00 PM 68.0 °F 62.6 °F 83% 30.06 in 5.6 mi West 6.9 mph - N/A   Unknown
6:30 PM 66.2 °F 60.8 °F 83% 30.06 in 4.3 mi West 4.6 mph - N/A   Unknown
7:00 PM 64 °F 61 °F 85% 30.07 in 4 mi West 2.2 mph - -   Mist
7:00 PM 64.4 °F 60.8 °F 88% 30.06 in 3.7 mi Variable 1.2 mph - N/A   Unknown
7:30 PM 62.6 °F 59.0 °F 88% 30.06 in 3.1 mi Calm Calm - N/A Fog Mist
8:00 PM 61 °F 59 °F 90% 30.08 in 4 mi ENE 2.2 mph - - Fog Patches of Fog
8:00 PM 60.8 °F 59.0 °F 94% 30.06 in 3.7 mi Variable 1.2 mph - N/A Fog Fog
8:30 PM 60.8 °F 59.0 °F 94% 30.06 in 3.7 mi Variable 1.2 mph - N/A Fog Fog
9:00 PM 59.0 °F 59.0 °F 100% 30.06 in 3.7 mi Variable 1.2 mph - N/A Fog Fog
9:30 PM 59.0 °F 57.2 °F 94% 30.06 in 3.7 mi Variable 2.3 mph - N/A   Unknown
10:00 PM 59.0 °F 57.2 °F 94% 30.09 in 3.1 mi Variable 2.3 mph - N/A   Mist
10:30 PM 59.0 °F 57.2 °F 94% 30.09 in 2.5 mi Variable 2.3 mph - N/A   Mist
11:00 PM 58 °F 56 °F 92% 30.10 in 2 mi East 2.2 mph - -   Mist
11:00 PM 57.2 °F 57.2 °F 100% 30.09 in 1.9 mi Variable 1.2 mph - N/A   Partly Cloudy
11:30 PM 59.0 °F 57.2 °F 94% 30.09 in 1.9 mi Variable 2.3 mph - N/A   Scattered Clouds